LiveATC.Net - Listen to live air traffic control over the Internet!


ICAO: KSTP  IATA: STP   Airport: St. Paul Downtown Airport / Holman Field
City: Saint Paul   State/Province: Minnesota
Country: United States   Continent: North America
KSTP METAR Weather: KSTP 191953Z 08004KT 10SM FEW050 OVC075 23/12 A2978 RMK AO2 SLP081 T02330117 $
KSTP Flight Activity (FlightAware)
KSTP Airport Info   (iFlightPlanner)
KSTP VFR Sectional Chart   (iFlightPlanner) 
KSTP IFR Low Chart   (iFlightPlanner) 

KSTP Tower
Feed Status: UP   Listeners: 0
Listen in your browser - HTML5 player (in browser, HTML5)
Click here to listen with your own player (launches your MP3 player)
KSTP Tower Audio Archives
FacilityFrequency
Saint Paul Tower119.100

NOTICE

Unauthorized use prohibited. See LiveATC.net Terms of Service


Find LiveATC Audio Streams


Airport/ARTCC Code

Frequency Search
(e.g., 124.400, 128.75)
Site-wide search
 


Browse LiveATC Feeds
Top 50 LiveATC Feeds
LiveATC Feed Map
Bad Weather Areas

LiveATC FAQ
Offer LiveATC feed
Contact LiveATC.net
Press Inquiries

LiveATC on iPhone
LiveATC on Android

Windows Phone
Windows 8/10

LiveATC Mobile
(Mobile browser)

ATC Audio Archives
Interesting Recordings

LiveATC Forums


Home Page
About LiveATC.net
Make a Donation
Terms of Use
Privacy Policy

Canadian Air Freqs

AIRMETs/SIGMETs

FAA Airport Status
Nat'l Airspace Status
Arrival Demand Charts


Server Software By:
Icecast.org
Liquidsoap